This is the latest recevied weather packets stored in our database for station/object KR4CWL-13. If no packets are shown the sender has not sent any weather packets the latest 10 day(s).
| Time | Temp. | Humidity | Pressure | Rain* | Wind** | Luminosity | Snow |
|---|---|---|---|---|---|---|---|
| 1777607031 | 13.33° C | 80% | 1005.4 hPa | 0 mm | - | - | - |
| 1777606431 | 13.33° C | 75% | 1005.4 hPa | 0 mm | - | - | - |
| 1777605831 | 13.89° C | 80% | 1005.4 hPa | 0 mm | - | - | - |
| 1777605230 | 13.89° C | 80% | 1005.4 hPa | 0 mm | - | - | - |
| 1777604630 | 13.89° C | 80% | 1005.4 hPa | 0 mm | - | - | - |
| 1777604030 | 13.89° C | 74% | 1005.4 hPa | 0 mm | - | - | - |
| 1777603430 | 13.89° C | 80% | 1005.1 hPa | 0 mm | - | - | - |
| 1777602830 | 14.44° C | 79% | 1005.1 hPa | 0 mm | - | - | - |
| 1777602230 | 14.44° C | 81% | 1004.7 hPa | 0 mm | - | - | - |
| 1777601630 | 15° C | 82% | 1004.7 hPa | 0 mm | - | - | - |
| 1777601030 | 15° C | 82% | 1004.7 hPa | 0 mm | - | - | - |
| 1777600430 | 15° C | 82% | 1004.4 hPa | 0 mm | - | - | - |
| 1777599830 | 15° C | 76% | 1004.1 hPa | 0 mm | - | - | - |
| 1777599230 | 15° C | 78% | 1004.1 hPa | 0 mm | - | - | - |
| 1777598630 | 15.56° C | 78% | 1003.7 hPa | 0 mm | - | - | - |
| 1777598030 | 16.11° C | 78% | 1003.7 hPa | 0 mm | - | - | - |
| 1777597430 | 16.11° C | 79% | 1003.7 hPa | 0 mm | - | - | - |
| 1777596830 | 16.67° C | 79% | 1003.4 hPa | 0 mm | - | - | - |
| 1777596230 | 17.22° C | 78% | 1003 hPa | 0 mm | - | - | - |
| 1777595630 | 17.78° C | 76% | 1003 hPa | 0 mm | - | - | - |
| 1777595030 | 17.78° C | 75% | 1002.7 hPa | 0 mm | - | - | - |
| 1777594430 | 18.33° C | 72% | 1002.7 hPa | 0 mm | - | - | - |
| 1777593830 | 18.89° C | 74% | 1002.7 hPa | 0 mm | - | - | - |
| 1777593230 | 19.44° C | 66% | 1002.4 hPa | 0 mm | - | - | - |
| 1777592630 | 20° C | 67% | 1002.4 hPa | 0 mm | - | - | - |
* Rain since midnight (hover to see other rain measurements)
** Current wind speed in m/s (hover to see current wind gust speed)